Duncan, OK

7:34 AM CDT on May 24, 2017 (GMT -0500)
Halliburton

Weather History for KDUC - November, 2011

Change the Weather History Date:

Tuesday, November 1, 2011

  Actual Average (KLAW) Record (KLAW)
Temperature  
Mean Temperature 62 °F -  
Max Temperature 73 °F 69 °F 87 °F (2012)
Min Temperature 51 °F 46 °F 24 °F (1993)
Degree Days  
Heating Degree Days 3    
Growing Degree Days 12 (Base 50)    
Moisture  
Dew Point 51 °F    
Average Humidity 68    
Maximum Humidity 94    
Minimum Humidity 50    
Precipitation  
Precipitation 0.00 in - - ()
Sea Level Pressure  
Sea Level Pressure 30.00 in    
Wind  
Wind Speed 13 mph (South)    
Max Wind Speed 26 mph    
Max Gust Speed 32 mph    
Visibility 10 miles    
Events      
Averages and records for this station are not official NWS values.
T = Trace of Precipitation, MM = Missing Value Source: NWS Daily Summary

Daily Weather History Graph

Daily Weather History Graph

Search for Another Location

Airport or City:

Trip Planner

Search our weather history database for the weather conditions in past years. The results will help you decide how hot, cold, wet, or windy it might be!

Date:

Astronomy

Nov. 01, 2011 Rise Set
Actual Time 7:51 AM CDT 6:38 PM CDT
Civil Twilight 7:25 AM CDT 7:04 PM CDT
Nautical Twilight 6:56 AM CDT 7:34 PM CDT
Astronomical Twilight 6:26 AM CDT 8:03 PM CDT
Moon 1:36 PM CDT (11/1) No Moon Set
Length of Visible Light 11h 38m
Length of Day
10h 46m
Waxing Crescent, 40% of the Moon is Illuminated
Nov 1
Waxing Crescent
Nov 2
First Quarter
Nov 10
Full
Nov 18
Last Quarter
Nov 25
New

Hourly Weather History & Observations

Time (CDT) Temp. Dew Point Humidity Pressure Visibility Wind Dir Wind Speed Gust Speed Precip Events Conditions
12:15 AM 59.0 °F 50.0 °F 72% 30.04 in 10.0 mi SSE 12.7 mph - N/A   Clear
12:35 AM 59.0 °F 50.0 °F 72% 30.04 in 10.0 mi South 12.7 mph - N/A   Clear
12:55 AM 59.0 °F 50.0 °F 72% 30.04 in 10.0 mi SSE 12.7 mph - N/A   Clear
1:15 AM 59.0 °F 50.0 °F 72% 30.04 in 10.0 mi SSE 12.7 mph - N/A   Clear
1:35 AM 59.0 °F 50.0 °F 72% 30.04 in 10.0 mi SSE 11.5 mph - N/A   Clear
1:55 AM 57.2 °F 48.2 °F 72% 30.04 in 10.0 mi SSE 11.5 mph - N/A   Clear
2:15 AM 59.0 °F 48.2 °F 67% 30.04 in 10.0 mi SSE 11.5 mph - N/A   Clear
2:35 AM 59.0 °F 48.2 °F 67% 30.04 in 10.0 mi SSE 10.4 mph 16.1 mph N/A   Clear
2:55 AM 57.2 °F 48.2 °F 72% 30.03 in 10.0 mi SSE 11.5 mph - N/A   Clear
3:15 AM 57.2 °F 48.2 °F 72% 30.03 in 10.0 mi SSE 10.4 mph - N/A   Clear
3:35 AM 57.2 °F 48.2 °F 72% 30.03 in 10.0 mi SSE 9.2 mph - N/A   Clear
3:55 AM 57.2 °F 48.2 °F 72% 30.03 in 10.0 mi SSE 11.5 mph - N/A   Clear
4:15 AM 55.4 °F 48.2 °F 77% 30.03 in 10.0 mi SSE 9.2 mph - N/A   Clear
4:35 AM 55.4 °F 48.2 °F 77% 30.03 in 10.0 mi SSE 8.1 mph - N/A   Clear
4:55 AM 55.4 °F 50.0 °F 82% 30.03 in 10.0 mi SSE 6.9 mph - N/A   Clear
5:15 AM 53.6 °F 50.0 °F 88% 30.03 in 10.0 mi SSE 6.9 mph - N/A   Clear
5:35 AM 53.6 °F 50.0 °F 88% 30.03 in 10.0 mi SSE 5.8 mph - N/A   Clear
5:55 AM 53.6 °F 50.0 °F 88% 30.04 in 10.0 mi SSE 9.2 mph - N/A   Clear
6:15 AM 53.6 °F 50.0 °F 88% 30.03 in 10.0 mi South 9.2 mph - N/A   Clear
6:35 AM 53.6 °F 50.0 °F 88% 30.03 in 10.0 mi South 6.9 mph - N/A   Clear
6:55 AM 53.6 °F 50.0 °F 88% 30.03 in 10.0 mi SSE 10.4 mph - N/A   Clear
7:15 AM 53.6 °F 50.0 °F 88% 30.03 in 10.0 mi SSE 9.2 mph - N/A   Clear
7:35 AM 53.6 °F 50.0 °F 88% 30.04 in 10.0 mi SSE 8.1 mph - N/A   Clear
7:55 AM 51.8 °F 50.0 °F 94% 30.04 in 10.0 mi South 6.9 mph - N/A   Clear
8:15 AM 51.8 °F 50.0 °F 94% 30.05 in 10.0 mi SSE 5.8 mph - N/A   Clear
8:35 AM 53.6 °F 50.0 °F 88% 30.06 in 10.0 mi SSE 5.8 mph - N/A   Clear
8:55 AM 53.6 °F 50.0 °F 88% 30.06 in 10.0 mi South 8.1 mph - N/A   Clear
9:15 AM 55.4 °F 50.0 °F 82% 30.06 in 10.0 mi South 10.4 mph - N/A   Clear
9:35 AM 59.0 °F 51.8 °F 77% 30.06 in 10.0 mi SSW 13.8 mph - N/A   Clear
9:55 AM 60.8 °F 51.8 °F 72% 30.06 in 7.0 mi South 19.6 mph 24.2 mph N/A   Clear
10:15 AM 62.6 °F 51.8 °F 68% 30.06 in 10.0 mi SSW 21.9 mph 28.8 mph N/A   Clear
10:35 AM 64.4 °F 51.8 °F 64% 30.05 in 10.0 mi SSW 20.7 mph 31.1 mph N/A   Clear
10:55 AM 64.4 °F 51.8 °F 64% 30.05 in 10.0 mi SSW 19.6 mph 28.8 mph N/A   Clear
11:15 AM 68.0 °F 51.8 °F 56% 30.05 in 10.0 mi South 21.9 mph 29.9 mph N/A   Clear
11:35 AM 68.0 °F 51.8 °F 56% 30.04 in 10.0 mi SSW 26.5 mph 31.1 mph N/A   Clear
11:55 AM 68.0 °F 51.8 °F 56% 30.04 in 10.0 mi South 26.5 mph 29.9 mph N/A   Clear
12:15 PM 69.8 °F 53.6 °F 56% 30.03 in 10.0 mi SSW 20.7 mph 28.8 mph N/A   Clear
12:35 PM 69.8 °F 51.8 °F 53% 30.02 in 10.0 mi SSW 21.9 mph 32.2 mph N/A   Clear
1:15 PM 71.6 °F 53.6 °F 53% 29.99 in 10.0 mi SSW 20.7 mph 26.5 mph N/A   Clear
1:35 PM 71.6 °F 53.6 °F 53% 29.99 in 10.0 mi SSW 20.7 mph 28.8 mph N/A   Clear
2:15 PM 71.6 °F 53.6 °F 53% 29.97 in 10.0 mi South 18.4 mph 28.8 mph N/A   Clear
2:35 PM 73.4 °F 53.6 °F 50% 29.96 in 10.0 mi South 24.2 mph 31.1 mph N/A   Clear
2:55 PM 73.4 °F 53.6 °F 50% 29.95 in 10.0 mi South 20.7 mph 28.8 mph N/A   Clear
3:15 PM 73.4 °F 53.6 °F 50% 29.95 in 10.0 mi South 19.6 mph - N/A   Clear
3:35 PM 73.4 °F 53.6 °F 50% 29.94 in 10.0 mi South 23.0 mph - N/A   Clear
3:55 PM 73.4 °F 53.6 °F 50% 29.94 in 10.0 mi South 18.4 mph 25.3 mph N/A   Clear
4:15 PM 73.4 °F 53.6 °F 50% 29.94 in 10.0 mi SSE 20.7 mph 25.3 mph N/A   Clear
4:35 PM 73.4 °F 53.6 °F 50% 29.93 in 10.0 mi SSE 21.9 mph 28.8 mph N/A   Clear
4:55 PM 73.4 °F 53.6 °F 50% 29.93 in 10.0 mi South 17.3 mph 27.6 mph N/A   Clear
5:15 PM 73.4 °F 53.6 °F 50% 29.92 in 10.0 mi SSE 17.3 mph 23.0 mph N/A   Clear
5:35 PM 73.4 °F 53.6 °F 50% 29.92 in 10.0 mi SSE 19.6 mph 24.2 mph N/A   Clear
5:55 PM 71.6 °F 53.6 °F 53% 29.92 in 10.0 mi SSE 18.4 mph 27.6 mph N/A   Clear
6:15 PM 71.6 °F 53.6 °F 53% 29.92 in 10.0 mi SSE 16.1 mph 24.2 mph N/A   Clear
6:35 PM 69.8 °F 53.6 °F 56% 29.92 in 10.0 mi SSE 12.7 mph 21.9 mph N/A   Clear
6:55 PM 68.0 °F 53.6 °F 60% 29.93 in 10.0 mi SSE 12.7 mph - N/A   Clear
7:15 PM 68.0 °F 53.6 °F 60% 29.94 in 10.0 mi SSE 11.5 mph - N/A   Clear
7:35 PM 66.2 °F 53.6 °F 64% 29.94 in 10.0 mi SSE 11.5 mph - N/A   Clear
7:55 PM 64.4 °F 51.8 °F 64% 29.94 in 10.0 mi SSE 10.4 mph - N/A   Clear
8:15 PM 64.4 °F 51.8 °F 64% 29.94 in 10.0 mi SSE 12.7 mph - N/A   Clear
8:35 PM 64.4 °F 51.8 °F 64% 29.94 in 10.0 mi SSE 13.8 mph - N/A   Clear
8:55 PM 64.4 °F 51.8 °F 64% 29.94 in 10.0 mi SSE 15.0 mph 20.7 mph N/A   Clear
9:35 PM 64.4 °F 53.6 °F 68% 29.93 in 10.0 mi SSE 13.8 mph - N/A   Clear
9:55 PM 64.4 °F 51.8 °F 64% 29.94 in 10.0 mi SSE 15.0 mph - N/A   Clear
10:15 PM 62.6 °F 51.8 °F 68% 29.94 in 10.0 mi SSE 12.7 mph - N/A   Clear
10:35 PM 62.6 °F 51.8 °F 68% 29.94 in 10.0 mi SSE 11.5 mph - N/A   Clear
10:55 PM 62.6 °F 51.8 °F 68% 29.94 in 10.0 mi SSE 11.5 mph - N/A   Clear
11:15 PM 62.6 °F 51.8 °F 68% 29.94 in 10.0 mi SSE 11.5 mph - N/A   Clear
11:35 PM 62.6 °F 50.0 °F 63% 29.93 in 10.0 mi SSE 13.8 mph - N/A   Clear
11:55 PM 62.6 °F 50.0 °F 63% 29.92 in 10.0 mi SSE 11.5 mph - N/A   Clear